Flag for Botswana Weather past 2 weeks in Francistown, Botswana

Now
39 °F

Sunny.


Feels Like: 39 °F
Forecast: 38 / 78 °F
Wind: 2 mph from South

Location: Francistown Airport

Current Time: Jul 4, 2015 at 6:25:08 AM

Latest Report: Jul 4, 2015 at 6:00 AM


Visibility: 10 mi

Pressure: 30.33 "Hg (26.85 "Hg at 989m altitude)

Humidity: 81%

Dew point: 34 °F

Location of FrancistownLocation

Historic Weather in Francistown — Graph

°F

Francistown temperature yesterday

Maximum temperature yesterday: 73 °F (at 2:00 PM)
Minimum temperature yesterday: 43 °F (at 7:00 AM)
Average temperature yesterday: 61 °F

Past Weeks' High & Low Weather Summary

 TemperatureHumidityPressure
High82 °F (Jun 29, 3:00 PM)100% (Jun 28, 5:00 AM)30.48 "Hg (Jun 28, 5:00 AM)
Low32 °F (Jun 19, 7:00 AM)18% (Jun 24, 3:00 PM)30.15 "Hg (Jun 24, 3:00 PM)
Average59 °F52%30.30 "Hg
* Reported Jun 19 6:00 AM — Jul 4 5:00 AM, Francistown, Weather by CustomWeather, © 2015

Note: Actual official high and low records may vary slightly from our data, if they occured in-between our weather recording intervals... More about our weather records

Advertising

Francistown weather history for previous 24 hours

 ConditionsComfort  
Time TempWeatherWind HumidityBarometerVisibility
5:00 AM
Sat, Jul 4
39 °FClear.2 mph81%30.33 "Hg10 mi
4:00 AM39 °FClear.2 mph81%30.30 "Hg10 mi
3:00 AM45 °FClear.3 mph71%30.30 "Hg10 mi
2:00 AM46 °FClear.3 mph76%30.33 "Hg10 mi
1:00 AM48 °FClear.6 mph71%30.33 "Hg10 mi
12:00 AM54 °FClear.5 mph63%30.33 "Hg10 mi
11:00 PM
Fri, Jul 3
57 °FClear.8 mph55%30.33 "Hg10 mi
10:00 PM52 °FClear.5 mph58%30.33 "Hg10 mi
6:00 PM66 °FClear.9 mph35%30.27 "Hg10 mi
5:00 PM72 °FClear.9 mph29%30.27 "Hg10 mi
4:00 PM73 °FSunny.17 mph27%30.27 "Hg10 mi
3:00 PM73 °FSunny.9 mph29%30.27 "Hg10 mi
2:00 PM73 °FSunny.9 mph27%30.30 "Hg10 mi
1:00 PM72 °FSunny.15 mph29%30.33 "Hg10 mi
12:00 PM70 °FSunny.9 mph31%30.36 "Hg10 mi
11:00 AM68 °FSunny.13 mph35%30.39 "Hg10 mi
10:00 AM66 °FSunny.8 mph40%30.39 "Hg10 mi
9:00 AM59 °FSunny.3 mph51%30.39 "Hg10 mi
8:00 AM48 °FSunny.2 mph71%30.36 "Hg10 mi
7:00 AM43 °FSunny.1 mph76%30.36 "Hg10 mi
Weather by CustomWeather, © 2015

See weather overviewHow to use our weather pages